Zurück zum Katalog

SL-19 DEB

AktivUNKNOWN
NORAD 23495·DEBRIS·🇷🇺 Russia

Gestartet Dec 26, 1994 von Baikonur Cosmodrome

Loading…

Nächste Überflüge (nächste 24 Stunden)

TLE

AktuellSource: Space-Track

Epoche: Sep 13, 2026, 18:08 UTC

1 23495U 94085T   26256.75586876 -.00000001  00000-0  11159-2 0  9993
2 23495  65.0239 168.6743 0175954  28.3298   0.8536 11.31090967309818

Verfolge SL-19 DEB in Echtzeit mit AllMySat

Download on the App Store